View from above orbital plane
|
View from above satellite
|
Ground track
|
The orbit data is extracted from the following two-line orbital elements,
1 40057U 14034E 21023.66782779 .00000325 00000-0 52603-4 0 9998
2 40057 98.3057 173.0980 0011506 155.7344 204.4416 14.78047159354155
Epoch (UTC): | 23 January 2021 16:01:40 |
Eccentricity: | 0.0011506 |
inclination: | 98.3057° |
perigee height: | 627 km |
apogee height: | 643 km |
right ascension of ascending node: | 173.0980° |
argument of perigee: | 155.7344° |
revolutions per day: | 14.78047159 |
mean anomaly at epoch: | 204.4416° |
orbit number at epoch: | 35415 |
The dashed part of the orbit path shows where the satellite is in the earth's shadow,
|
|